Weather History for Arlington, WA

Change the Weather History Date:

Friday, January 11, 2013

  Actual Average Record
Temperature  
Mean Temperature 26 °F -  
Max Temperature 33 °F 39 °F 51 °F (1999)
Min Temperature 19 °F 31 °F 15 °F (1998)
Degree Days  
Heating Degree Days 39    
Moisture  
Dew Point 23 °F    
Average Humidity 89    
Maximum Humidity 100    
Minimum Humidity 75    
Precipitation  
Precipitation 0.00 in - - ()
Sea Level Pressure  
Sea Level Pressure 30.28 in    
Wind  
Wind Speed 0 mph (SSW)    
Max Wind Speed 5 mph    
Max Gust Speed -    
Visibility 6 miles    
Events      
Averages and records for this station are not official NWS values.
T = Trace of Precipitation, MM = Missing Value Source: NWS Daily Summary

Daily Weather History Graph

Daily Weather History Graph

Search for Another Location

Airport:

Trip Planner

Search our weather history database for the weather conditions in past years. The results will help you decide how hot, cold, wet, or windy it might be!

Date:

Astronomy

Jan. 11, 2013 Rise Set
Actual Time 7:56 AM PST 4:37 PM PST
Civil Twilight 7:20 AM PST 5:13 PM PST
Nautical Twilight 6:41 AM PST 5:52 PM PST
Astronomical Twilight 6:04 AM PST 6:29 PM PST
Moon 7:29 AM PST (1/11) 5:07 PM PST (1/11)
Length of Visible Light 9h 52m
Length of Day
8h 41m
New Moon, 0% of the Moon is Illuminated
Jan 11
New Moon
Jan 18
First Quarter
Jan 26
Full
Feb 3
Last Quarter
Feb 9
New

Hourly Weather History & Observations

Time (PST) Temp. Windchill Dew Point Humidity Pressure Visibility Wind Dir Wind Speed Gust Speed Precip Events Conditions
12:15 AM 24.8 °F - 21.2 °F 86% 30.13 in 0.8 mi Calm Calm - N/A   Mostly Cloudy
12:35 AM 23.0 °F - 21.2 °F 93% 30.13 in 0.5 mi Calm Calm - N/A   Mostly Cloudy
12:55 AM 24.8 °F - 21.2 °F 86% 30.13 in 0.2 mi Calm Calm - N/A   Overcast
1:15 AM 24.8 °F - 21.2 °F 86% 30.14 in 0.2 mi Calm Calm - N/A   Overcast
1:35 AM 24.8 °F - 21.2 °F 86% 30.15 in 0.2 mi Calm Calm - N/A   Overcast
1:55 AM 23.0 °F - 19.4 °F 86% 30.15 in 2.0 mi Calm Calm - N/A   Mostly Cloudy
2:15 AM 23.0 °F - 19.4 °F 86% 30.16 in 8.0 mi Calm Calm - N/A   Clear
2:35 AM 21.2 °F - 19.4 °F 93% 30.16 in 2.5 mi Calm Calm - N/A   Clear
2:55 AM 21.2 °F - 15.8 °F 80% 30.16 in 1.0 mi Calm Calm - N/A   Clear
3:15 AM 23.0 °F - 19.4 °F 86% 30.17 in 8.0 mi Calm Calm - N/A   Clear
3:35 AM 21.2 °F - 19.4 °F 93% 30.17 in 0.8 mi Calm Calm - N/A   Unknown
4:15 AM 23.0 °F - 21.2 °F 93% 30.17 in 8.0 mi Calm Calm - N/A   Clear
4:55 AM 23.0 °F - 19.4 °F 86% 30.19 in 5.0 mi Calm Calm - N/A   Clear
5:15 AM 21.2 °F - 19.4 °F 93% 30.19 in 10.0 mi Calm Calm - N/A   Clear
5:35 AM 21.2 °F - 19.4 °F 93% 30.19 in 8.0 mi Calm Calm - N/A   Clear
5:55 AM 21.2 °F - 15.8 °F 80% 30.20 in 10.0 mi Calm Calm - N/A   Clear
6:15 AM 23.0 °F - 19.4 °F 86% 30.21 in 10.0 mi Calm Calm - N/A   Clear
6:35 AM 19.4 °F - 17.6 °F 93% 30.22 in 10.0 mi Calm Calm - N/A   Clear
6:55 AM 21.2 °F - 15.8 °F 80% 30.23 in 10.0 mi Calm Calm - N/A   Clear
7:35 AM 21.2 °F - 19.4 °F 93% 30.26 in 10.0 mi Calm Calm - N/A   Clear
7:55 AM 19.4 °F - 15.8 °F 86% 30.27 in 10.0 mi Calm Calm - N/A   Clear
8:15 AM 21.2 °F - 17.6 °F 86% 30.28 in 10.0 mi Calm Calm - N/A   Clear
8:35 AM 21.2 °F - 19.4 °F 93% 30.28 in 10.0 mi Calm Calm - N/A   Clear
8:55 AM 21.2 °F - 19.4 °F 93% 30.29 in 10.0 mi Calm Calm - N/A   Clear
9:15 AM 24.8 °F - 21.2 °F 86% 30.30 in 10.0 mi Calm Calm - N/A   Clear
9:35 AM 24.8 °F - 23.0 °F 93% 30.30 in 10.0 mi Calm Calm - N/A   Clear
9:55 AM 26.6 °F - 24.8 °F 93% 30.31 in 10.0 mi Calm Calm - N/A   Clear
10:15 AM 28.4 °F - 26.6 °F 93% 30.31 in 10.0 mi Calm Calm - N/A   Clear
10:35 AM 28.4 °F - 26.6 °F 93% 30.32 in 10.0 mi Calm Calm - N/A   Clear
10:55 AM 28.4 °F - 28.4 °F 100% 30.32 in 10.0 mi Calm Calm - N/A   Clear
11:15 AM 30.2 °F - 28.4 °F 93% 30.32 in 10.0 mi Calm Calm - N/A   Clear
11:35 AM 30.2 °F - 28.4 °F 93% 30.32 in 10.0 mi Calm Calm - N/A   Clear
12:15 PM 30.2 °F - 28.4 °F 93% 30.32 in 10.0 mi Calm Calm - N/A   Clear
12:35 PM 32.0 °F - 30.2 °F 93% 30.32 in 10.0 mi Calm Calm - N/A   Clear
12:55 PM 32.0 °F - 28.4 °F 87% 30.32 in 10.0 mi Calm Calm - N/A   Clear
1:15 PM 33.8 °F - 28.4 °F 81% 30.32 in 10.0 mi Calm Calm - N/A   Clear
1:35 PM 33.8 °F - 30.2 °F 87% 30.32 in 10.0 mi Calm Calm - N/A   Scattered Clouds
1:55 PM 33.8 °F - 28.4 °F 81% 30.32 in 10.0 mi Calm Calm - N/A   Partly Cloudy
2:15 PM 33.8 °F 30.8 °F 28.4 °F 81% 30.32 in 10.0 mi SSW 3.5 mph - N/A   Clear
2:35 PM 33.8 °F 29.6 °F 28.4 °F 81% 30.32 in 10.0 mi South 4.6 mph - N/A   Clear
2:55 PM 33.8 °F 30.8 °F 26.6 °F 75% 30.32 in 10.0 mi South 3.5 mph - N/A   Clear
3:15 PM 33.8 °F - 26.6 °F 75% 30.33 in 10.0 mi Calm Calm - N/A   Clear
3:35 PM 33.8 °F - 26.6 °F 75% 30.34 in 10.0 mi Calm Calm - N/A   Clear
3:55 PM 33.8 °F - 26.6 °F 75% 30.34 in 10.0 mi Calm Calm - N/A   Clear
4:15 PM 32.0 °F - 26.6 °F 80% 30.34 in 10.0 mi Calm Calm - N/A   Clear
4:35 PM 30.2 °F - 26.6 °F 86% 30.34 in 10.0 mi Calm Calm - N/A   Clear
4:55 PM 30.2 °F - 26.6 °F 86% 30.34 in 10.0 mi Calm Calm - N/A   Clear
5:15 PM 28.4 °F - 26.6 °F 93% 30.35 in 5.0 mi Calm Calm - N/A   Clear
5:35 PM 26.6 °F - 24.8 °F 93% 30.35 in 9.0 mi Calm Calm - N/A   Clear
5:55 PM 26.6 °F - 24.8 °F 93% 30.34 in 5.0 mi Calm Calm - N/A   Clear
6:15 PM 26.6 °F - 24.8 °F 93% 30.34 in 9.0 mi Calm Calm - N/A   Clear
6:35 PM 26.6 °F - 24.8 °F 93% 30.34 in 3.0 mi Calm Calm - N/A   Clear
6:55 PM 26.6 °F - 24.8 °F 93% 30.35 in 0.8 mi Calm Calm - N/A   Unknown
7:15 PM 26.6 °F - 26.6 °F 100% 30.34 in 3.0 mi Calm Calm - N/A   Mostly Cloudy
7:35 PM 24.8 °F - 21.2 °F 86% 30.34 in 1.0 mi Calm Calm - N/A   Overcast
7:55 PM 26.6 °F - 24.8 °F 93% 30.34 in 0.5 mi Calm Calm - N/A   Overcast
8:15 PM 26.6 °F - 24.8 °F 93% 30.34 in 0.2 mi Calm Calm - N/A   Overcast
8:35 PM 26.6 °F - 24.8 °F 93% 30.34 in 0.2 mi Calm Calm - N/A   Overcast
8:55 PM 26.6 °F - 24.8 °F 93% 30.34 in 0.2 mi Calm Calm - N/A   Overcast
9:35 PM 26.6 °F - 24.8 °F 93% 30.35 in 0.2 mi Calm Calm - N/A   Overcast
9:55 PM 26.6 °F - 24.8 °F 93% 30.35 in 0.2 mi Calm Calm - N/A   Overcast
10:15 PM 26.6 °F - 24.8 °F 93% 30.35 in 0.2 mi Calm Calm - N/A   Overcast
10:35 PM 24.8 °F - 23.0 °F 93% 30.35 in 0.2 mi Calm Calm - N/A   Overcast
10:55 PM 24.8 °F - 23.0 °F 93% 30.35 in 0.2 mi Calm Calm - N/A   Overcast
11:15 PM 24.8 °F - 21.2 °F 86% 30.35 in 0.2 mi Calm Calm - N/A   Overcast
11:35 PM 23.0 °F - 19.4 °F 86% 30.34 in 0.2 mi Calm Calm - N/A   Overcast
11:55 PM 23.0 °F - 21.2 °F 93% 30.35 in 0.2 mi Calm Calm - N/A   Overcast